Snowmass, USA 16 day weather forecast

Slopes altitude range 2470 m - 3815m

Number of lifts: 17 Pistes: 241km

In some cases the lift and piste totals shown are for the ski domain (e.g. Three Valleys) rather than individual resort (e.g. Courchevel)

Overview

The 16 day weather forecast is fully updated 4 times every day.

    • Sun 17 FEB 2019
    • Sun 17
    • -26C -22C
    • Mon 18 FEB 2019
    • Mon 18
    • -19C -18C
    • Tue 19 FEB 2019
    • Tue 19
    • -18C -16C
    • Wed 20 FEB 2019
    • Wed 20
    • -27C -22C
    • Thu 21 FEB 2019
    • Thu 21
    • -21C -20C
    • Fri 22 FEB 2019
    • Fri 22
    • -18C -17C
    • Sat 23 FEB 2019
    • Sat 23
    • -25C -23C
    • Sun 24 FEB 2019
    • Sun 24
    • -22C -21C
    • Mon 25 FEB 2019
    • Mon 25
    • -14C -11C
    • Tue 26 FEB 2019
    • Tue 26
    • -19C -12C
    • Wed 27 FEB 2019
    • Wed 27
    • -21C -6C
    • Thu 28 FEB 2019
    • Thu 28
    • -15C -5C
    • Fri 01 MAR 2019
    • Fri 01
    • -11C -5C
    • Sat 02 MAR 2019
    • Sat 02
    • -14C -4C
    • Sun 03 MAR 2019
    • Sun 03
    • -7C -5C
    • Mon 04 MAR 2019
    • Mon 04
    • -17C -7C

Date:

Time Type 0°C level Temp Chill Snow Cloud Speed Gust Dir Press
12:00 1m -22°C -22_3 1cm 87% 3mph 4mph 1023mB
15:00 293m -20°C -20_4 1cm 100% 4mph 4mph 1023mB
18:00 1039m -15°C -15_5 1cm 100% 5mph 5mph 1016mB
21:00 1332m -15°C -15_5 1cm 100% 5mph 5mph 1014mB
0:00 1042m -15°C -15_3 1cm 100% 3mph 3mph 1014mB
3:00 269m -20°C -20_4 0cm 100% 4mph 5mph 1018mB
6:00 336m -20°C -20_6 0cm 100% 6mph 6mph 1019mB
9:00 490m -19°C -19_6 1cm 100% 6mph 7mph 1020mB
12:00 512m -18°C -18_5 1cm 100% 5mph 6mph 1020mB
15:00 712m -17°C -17_5 1cm 100% 5mph 6mph 1022mB
18:00 1189m -14°C -14_7 1cm 100% 7mph 9mph 1018mB
21:00 1538m -14°C -14_7 1cm 100% 7mph 9mph 1014mB
0:00 1320m -14°C -14_3 1cm 100% 3mph 3mph 1015mB
3:00 771m -17°C -17_4 1cm 100% 4mph 5mph 1018mB
6:00 775m -17°C -17_4 1cm 100% 4mph 4mph 1017mB
9:00 788m -17°C -17_3 2cm 100% 3mph 3mph 1016mB
12:00 576m -16°C -16_4 3cm 100% 4mph 4mph 1015mB
15:00 806m -16°C -16_3 1cm 100% 3mph 3mph 1016mB
18:00 1226m -14°C -14_4 2cm 100% 4mph 4mph 1013mB
21:00 1355m -14°C -14_7 1cm 100% 7mph 7mph 1009mB
0:00 1069m -15°C -15_7 2cm 100% 7mph 9mph 1012mB
3:00 490m -19°C -19_5 1cm 100% 5mph 6mph 1017mB
6:00 11m -22°C -22_4 1cm 100% 4mph 5mph 1021mB
9:00 0m -27°C -27_3 1cm 100% 3mph 4mph 1023mB
12:00 0m -22°C -22_3 1cm 100% 3mph 4mph 1025mB
15:00 0m -25°C -25_2 0cm 99% 2mph 3mph 1025mB
18:00 842m -16°C -16_6 0cm 95% 6mph 6mph 1016mB
21:00 1249m -16°C -16_7 0cm 96% 7mph 8mph 1010mB
0:00 1061m -16°C -16_4 0cm 92% 4mph 5mph 1011mB
3:00 403m -19°C -19_4 1cm 100% 4mph 5mph 1016mB
6:00 296m -20°C -20_6 1cm 100% 6mph 7mph 1018mB
9:00 247m -21°C -21_6 1cm 100% 6mph 7mph 1017mB
12:00 131m -20°C -20_6 1cm 100% 6mph 7mph 1017mB
15:00 471m -19°C -19_6 0cm 100% 6mph 8mph 1016mB
18:00 1387m -13°C -13_8 1cm 100% 8mph 10mph 1009mB
21:00 1596m -13°C -13_7 1cm 100% 7mph 8mph 1006mB
0:00 1478m -13°C -13_4 1cm 100% 4mph 6mph 1007mB
3:00 615m -18°C -18_6 0cm 100% 6mph 6mph 1012mB
6:00 640m -18°C -18_5 0cm 100% 5mph 6mph 1012mB
9:00 557m -18°C -18_7 1cm 100% 7mph 8mph 1013mB
12:00 685m -17°C -17_4 1cm 100% 4mph 5mph 1015mB
15:00 934m -16°C -16_4 1cm 100% 4mph 5mph 1018mB
18:00 1298m -13°C -13_6 1cm 100% 6mph 7mph 1016mB
21:00 1509m -13°C -13_7 1cm 100% 7mph 8mph 1015mB
0:00 1380m -13°C -13_7 1cm 100% 7mph 8mph 1019mB
3:00 417m -19°C -19_3 1cm 97% 3mph 4mph 1027mB
6:00 0m -22°C -22_3 1cm 94% 3mph 4mph 1031mB
9:00 0m -24°C -24_4 0cm 56% 4mph 4mph 1033mB
12:00 0m -23°C -23_3 0cm 39% 3mph 4mph 1034mB
15:00 281m -20°C -20_3 0cm 0% 3mph 4mph 1033mB
18:00 1736m -10°C -10_5 0cm 7% 5mph 5mph 1023mB
21:00 2044m -10°C -10_6 0cm 100% 6mph 7mph 1019mB
0:00 1790m -10°C -10_5 0cm 100% 5mph 6mph 1020mB
3:00 284m -20°C -20_1 0cm 61% 1mph 3mph 1028mB
6:00 94m -21°C -21_1 0cm 51% 1mph 3mph 1030mB
9:00 84m -22°C -22_1 0cm 22% 1mph 2mph 1031mB
12:00 141m -21°C -21_2 0cm 37% 2mph 3mph 1030mB
15:00 905m -16°C -16_4 0cm 36% 4mph 4mph 1027mB
18:00 2087m -8°C -8_7 0cm 51% 7mph 7mph 1018mB
21:00 2296m -8°C -8_7 0cm 82% 7mph 9mph 1014mB
0:00 2035m -8°C -8_6 1cm 91% 6mph 9mph 1014mB
3:00 1106m -15°C -15_4 1cm 100% 4mph 6mph 1019mB
6:00 1128m -15°C -15_4 1cm 100% 4mph 5mph 1019mB
9:00 1448m -14°C -14_6 1cm 100% 6mph 7mph 1018mB
12:00 1573m -11°C -11_6 2cm 100% 6mph 9mph 1015mB
15:00 1777m -10°C -10_8 1cm 100% 8mph 12mph 1012mB
18:00 2051m -8°C -8_12 2cm 100% 12mph 23mph 1005mB
21:00 2118m -8°C -8_17 1cm 100% 17mph 37mph 1001mB
0:00 1971m -9°C -9_19 2cm 100% 19mph 44mph 1001mB
3:00 1755m -11°C -11_22 2cm 100% 22mph 44mph 1005mB
6:00 1546m -12°C -12_13 3cm 100% 13mph 36mph 1009mB
9:00 1173m -14°C -14_7 1cm 100% 7mph 33mph 1014mB
12:00 424m -12°C -12_5 1cm 100% 5mph 5mph 1020mB
15:00 492m -19°C -19_4 1cm 100% 4mph 5mph 1026mB
18:00 1060m -15°C -15_7 1cm 99% 7mph 9mph 1023mB
21:00 1380m -15°C -15_8 0cm 75% 8mph 13mph 1021mB
0:00 1125m -15°C -15_6 0cm 60% 6mph 7mph 1022mB
3:00 1m -23°C -23_5 0cm 0% 5mph 6mph 1030mB
6:00 0m -23°C -23_6 0cm 0% 6mph 7mph 1032mB
Afternoon 0mm 0.0625 2079m -6°C -6_8 1cm 64% 8mph 16mph 1020mB
Morning 0mm 0.25 716m -15°C -15_4 2cm 59% 4mph 4mph 1028mB
Afternoon 0mm 0 2303m -5°C -5_6 0cm 85% 6mph 10mph 1020mB
Morning 0mm 0.375 1489m -10°C -10_3 3cm 100% 3mph 4mph 1023mB
Afternoon 0mm 0 2227m -5°C -5_7 0cm 100% 7mph 12mph 1019mB
Morning 0mm 0.1875 899m -14°C -14_5 2cm 57% 5mph 6mph 1027mB
Afternoon 0mm 0 2498m -4°C -4_5 0cm 45% 5mph 9mph 1009mB
Morning 0mm 1.3125 2091m -6°C -6_2 10cm 100% 2mph 2mph 1002mB
Afternoon 0mm 0.0625 2264m -5°C -5_7 1cm 100% 7mph 12mph 998mB
Morning 0mm 0.375 665m -16°C -16_4 3cm 98% 4mph 7mph 1012mB
Afternoon 0mm 0 1909m -7°C -7_12 0cm 96% 12mph 23mph 999mB
Morning 0.015625mm 0.75 1580m -10°C -10_12 6cm 100% 12mph 35mph 1003mB

16 day outlook at a glance

Forecast issued: 2/17/2019 2:01:51 PM

Chat

Your comments and questions. In a resort? Let us know what it's like!


Characters left 250

For terms and conditions see Readers Comments on the Cookie and privacy policy page.